EW4117 Weather Reports


time (UTC)temp
C
wind
direction
speed
KPH
gust
KPH
rain 1hr
cm
rain 24hr
cm
rain mn
cm
humidity
%
barometer
mb
20260507013023 7 171 0.0 0.0 0.00 0.00 0.00 67 1005.3
20260507011533 7 173 0.0 0.0 0.00 0.00 0.00 67 1005.5
20260507010015 8 185 1.6 8.0 0.00 0.00 0.00 66 1005.6
20260507004517 8 203 3.2 8.0 0.00 0.00 0.00 66 1005.7
20260507003012 8 166 1.6 11.3 0.00 0.00 0.00 65 1005.8
20260507001504 9 198 0.0 9.7 0.00 0.00 0.00 63 1006.0
20260507000003 9 195 0.0 0.0 0.00 0.00 0.00 61 1006.0
20260506234606 10 207 0.0 0.0 0.00 0.00 0.00 60 1006.2
20260506233058 10 255 0.0 0.0 0.00 0.00 0.00 59 1006.1
20260506231557 10 132 0.0 4.8 0.00 0.00 0.00 58 1006.3
20260506230057 10 159 6.4 9.7 0.00 0.00 0.00 58 1006.3
20260506224554 10 116 6.4 11.3 0.00 0.00 0.00 57 1006.4
20260506223053 10 163 3.2 6.4 0.00 0.00 0.00 57 1006.3
20260506221550 10 198 6.4 11.3 0.00 0.00 0.00 57 1006.5
20260506220058 10 174 8.0 12.9 0.00 0.00 0.00 56 1006.4
20260506214548 10 167 0.0 4.8 0.00 0.00 0.00 53 1006.6
20260506213046 10 200 0.0 0.0 0.00 0.00 0.00 50 1006.6
20260506211547 11 223 0.0 0.0 0.00 0.00 0.00 49 1006.5
20260506210050 11 191 0.0 1.6 0.00 0.00 0.00 48 1006.3
20260506204547 11 159 1.6 3.2 0.00 0.00 0.00 50 1006.1
20260506203126 11 214 0.0 1.6 0.00 0.00 0.00 48 1006.0
20260506201546 11 215 0.0 0.0 0.00 0.00 0.00 47 1006.0
20260506200048 11 313 0.0 0.0 0.00 0.00 0.00 47 1005.8
20260506194542 11 314 0.0 1.6 0.00 0.00 0.00 45 1005.6
20260506193041 12 331 0.0 0.0 0.00 0.00 0.00 44 1005.4
20260506191544 12 333 0.0 1.6 0.00 0.00 0.00 43 1005.2
20260506190048 12 353 3.2 6.4 0.00 0.00 0.00 43 1005.1
20260506184551 12 311 3.2 11.3 0.00 0.00 0.00 43 1005.1
20260506183039 12 316 4.8 9.7 0.00 0.00 0.00 42 1005.1
20260506181539 13 319 1.6 9.7 0.00 0.00 0.00 42 1004.9
20260506180039 13 264 4.8 12.9 0.00 0.00 0.00 40 1004.7
20260506174537 13 264 6.4 16.1 0.00 0.00 0.00 38 1004.6
20260506173047 15 300 6.4 12.9 0.00 0.00 0.00 36 1004.6
20260506171538 15 2 9.7 16.1 0.00 0.00 0.00 34 1004.5
20260506170035 15 319 6.4 16.1 0.00 0.00 0.00 34 1004.5
20260506164538 15 347 1.6 9.7 0.00 0.00 0.00 35 1004.4
20260506163053 15 359 3.2 8.0 0.00 0.00 0.00 35 1004.5
20260506161533 15 338 0.0 4.8 0.00 0.00 0.00 34 1004.5
20260506160032 15 308 4.8 12.9 0.00 0.00 0.00 35 1004.6
20260506154536 15 343 9.7 16.1 0.00 0.00 0.00 34 1004.5
20260506153031 16 327 0.0 1.6 0.00 0.00 0.00 35 1004.8
20260506151534 16 321 1.6 11.3 0.00 0.00 0.00 35 1004.9
20260506150025 16 327 3.2 9.7 0.00 0.00 0.00 36 1005.0
20260506144519 15 226 0.0 9.7 0.00 0.00 0.00 37 1005.2
20260506143017 15 347 6.4 25.7 0.00 0.00 0.00 38 1005.5
20260506141514 15 58 9.7 19.3 0.00 0.00 0.00 36 1005.7
20260506140019 16 330 8.0 16.1 0.00 0.00 0.00 36 1005.7
20260506134510 15 348 3.2 12.9 0.00 0.00 0.00 37 1005.7
20260506133009 15 358 9.7 20.9 0.00 0.00 0.00 38 1005.8
20260506131514 15 18 0.0 14.5 0.00 0.00 0.00 40 1005.8
20260506130006 15 268 4.8 16.1 0.00 0.00 0.00 39 1005.8
20260506124504 15 343 12.9 19.3 0.00 0.00 0.00 40 1005.9
20260506123003 14 6 4.8 14.5 0.00 0.00 0.00 41 1006.0
20260506121501 14 350 9.7 17.7 0.00 0.00 0.00 40 1006.2
20260506120100 14 316 4.8 14.5 0.00 0.00 0.00 41 1006.3
20260506114557 13 298 9.7 16.1 0.00 0.00 0.00 40 1006.6
20260506113054 13 1 9.7 22.5 0.00 0.00 0.00 41 1006.6
20260506111553 13 325 4.8 12.9 0.00 0.00 0.00 45 1006.8
20260506110056 13 356 6.4 14.5 0.00 0.00 0.00 44 1006.9
20260506104548 12 6 6.4 14.5 0.00 0.00 0.00 44 1007.1
20260506103045 12 312 6.4 14.5 0.00 0.00 0.00 45 1007.2
20260506101549 12 25 0.0 11.3 0.00 0.00 0.00 46 1007.3
20260506100042 12 302 0.0 6.4 0.00 0.00 0.00 47 1007.4
20260506094540 11 327 3.2 9.7 0.00 0.00 0.00 47 1007.5
20260506093039 11 335 8.0 12.9 0.00 0.00 0.00 47 1007.3
20260506091538 11 21 6.4 11.3 0.00 0.00 0.00 46 1007.2
20260506090037 11 48 0.0 9.7 0.00 0.00 0.00 46 1007.3
20260506084542 10 284 3.2 12.9 0.00 0.00 0.00 48 1007.3
20260506083033 10 308 1.6 11.3 0.00 0.00 0.00 48 1007.3
20260506081540 10 332 4.8 14.5 0.00 0.00 0.00 48 1007.2
20260506073030 10 15 1.6 6.4 0.00 0.00 0.00 44 1007.2
20260506071529 11 8 0.0 1.6 0.00 0.00 0.00 43 1007.2
20260506061521 8 127 0.0 4.8 0.00 0.00 0.00 50 1007.5
20260506044515 6 288 0.0 0.0 0.00 0.00 0.00 53 1007.2
20260506043010 6 288 0.0 0.0 0.00 0.00 0.00 53 1007.1
20260506041607 6 144 0.0 0.0 0.00 0.00 0.00 52 1007.2
20260506040006 6 158 1.6 4.8 0.00 0.00 0.00 52 1007.3
20260506034505 7 146 3.2 4.8 0.00 0.00 0.00 52 1007.3
20260506033002 7 146 0.0 3.2 0.00 0.00 0.00 53 1007.3
20260506031603 7 148 1.6 4.8 0.00 0.00 0.00 52 1007.5
20260506030100 7 155 0.0 3.2 0.00 0.00 0.00 52 1007.6
20260506024608 7 146 0.0 0.0 0.00 0.00 0.00 53 1007.5
20260506023110 7 139 1.6 3.2 0.00 0.00 0.00 53 1007.6
20260506021555 7 150 3.2 4.8 0.00 0.00 0.00 54 1007.7
20260506020057 6 148 3.2 6.4 0.00 0.00 0.00 54 1007.8
20260506014551 7 151 3.2 6.4 0.00 0.00 0.00 53 1007.9